Location: Mentone
(34.5413°N, 85.5351°W)
Time: 10:56:15
(UTC-06:00)

Vanguard 3 - All Passes

Search period start: 14 February 2016 00:00
Search period end: 24 February 2016 00:00
Orbit: 508 x 3268 km, 33.3° (Epoch: 13 February)

Date Brightness Start Highest point End Pass type
(mag) Time Alt. Az. Time Alt. Az. Time Alt. Az.
14 Feb - 01:35:31 10° W 01:41:51 70° SSW 01:45:56 10° ESE night (unlit)
14 Feb - 03:49:47 10° WSW 03:52:45 19° SSW 03:55:26 10° SSE visible
14 Feb - 17:40:10 10° S 17:47:33 14° SE 17:53:52 10° ESE visible
14 Feb - 19:48:35 10° SSW 20:02:23 36° SSE 20:11:08 10° E visible
14 Feb - 22:03:45 10° WSW 22:16:08 65° SSE 22:22:55 10° E visible
15 Feb - 00:20:16 10° W 00:28:44 82° S 00:33:37 10° E night (unlit)
15 Feb - 02:35:15 10° W 02:40:12 39° SSW 02:43:49 10° SE night (unlit)
15 Feb - 18:34:07 10° SSW 18:47:29 27° SSE 18:57:01 10° E visible
15 Feb - 20:47:33 10° SW 21:01:57 54° SSE 21:10:11 10° E visible
15 Feb - 23:04:16 10° W 23:15:15 80° S 23:21:14 10° E visible
16 Feb - 01:20:25 10° W 01:27:24 65° SSW 01:31:44 10° ESE night (unlit)
16 Feb - 03:35:33 10° WSW 03:38:10 15° SW 03:40:28 10° S night (unlit)
16 Feb - 17:21:21 10° S 17:32:17 19° SE 17:41:14 10° ESE daylight
16 Feb - 19:31:46 10° SW 19:47:18 43° SSE 19:56:59 10° E visible
16 Feb - 21:47:45 10° WSW 22:01:20 72° SSE 22:08:42 10° E visible
17 Feb - 00:04:52 10° W 00:14:13 81° S 00:19:28 10° E night (unlit)
17 Feb - 02:20:24 10° W 02:25:40 34° SSW 02:29:23 10° SE night (unlit)
17 Feb - 16:14:11 10° SSE 16:16:56 10° SE 16:19:34 10° SE daylight
17 Feb - 18:16:52 10° SSW 18:32:12 33° SSE 18:43:01 10° E visible
17 Feb - 20:31:12 10° SW 20:46:57 61° SSE 20:55:55 10° E visible
17 Feb - 22:48:33 10° W 23:00:35 83° S 23:07:03 10° E visible
18 Feb - 01:05:11 10° W 01:12:54 60° SSW 01:17:31 10° ESE night (unlit)
18 Feb - 03:21:26 10° WSW 03:23:30 13° SW 03:25:19 10° SSW night (unlit)
18 Feb - 17:03:26 10° S 17:16:52 24° SE 17:27:42 10° E daylight
18 Feb - 19:15:06 10° SW 19:32:03 50° SSE 19:42:41 10° E visible
18 Feb - 21:31:45 10° WSW 21:46:27 78° S 21:54:27 10° E visible
18 Feb - 23:49:21 10° W 23:59:38 79° S 00:05:17 10° ESE visible
19 Feb - 02:05:27 10° W 02:11:04 30° SSW 02:14:55 10° SSE night (unlit)
19 Feb - 15:52:53 10° SSE 16:01:29 14° SE 16:09:22 10° ESE daylight
19 Feb - 17:59:55 10° SSW 18:16:46 39° SSE 18:28:46 10° E visible
19 Feb - 20:14:54 10° WSW 20:31:49 68° SSE 20:41:34 10° E visible
19 Feb - 22:32:46 10° W 22:45:50 84° S 22:52:50 10° E visible
20 Feb - 00:49:52 10° W 00:58:18 55° SSW 01:03:14 10° SE night (unlit)
20 Feb - 03:07:46 10° SW 03:08:44 10° SW 03:09:38 10° SSW night (unlit)
20 Feb - 16:46:04 10° SSW 17:01:17 29° SE 17:13:40 10° E daylight
20 Feb - 18:58:35 10° SW 19:16:41 57° SSE 19:28:16 10° E visible
20 Feb - 21:15:43 10° WSW 21:31:30 81° S 21:40:09 10° E visible
20 Feb - 23:33:43 10° W 23:44:58 76° SSW 23:51:04 10° ESE visible
21 Feb - 01:50:26 10° W 01:56:21 27° SW 02:00:23 10° SSE night (unlit)
21 Feb - 15:34:24 10° S 15:45:51 18° SE 15:56:21 10° ESE daylight
21 Feb - 17:43:11 10° SW 18:01:10 45° SSE 18:14:18 10° E visible
21 Feb - 19:58:41 10° WSW 20:16:35 73° SSE 20:27:09 10° E visible
21 Feb - 22:16:55 10° W 22:31:01 84° S 22:38:35 10° E visible
22 Feb - 00:34:25 10° W 00:43:37 50° SSW 00:48:55 10° SE night (unlit)
22 Feb - 16:29:05 10° SSW 16:45:33 34° SE 16:59:19 10° E daylight
22 Feb - 18:42:12 10° SW 19:01:11 63° SSE 19:13:44 10° E visible
22 Feb - 20:59:41 10° W 21:16:27 84° S 21:25:48 10° E visible
22 Feb - 23:17:59 10° W 23:30:13 72° SSW 23:36:49 10° ESE visible
23 Feb - 01:35:21 10° W 01:41:33 24° SW 01:45:46 10° SSE night (unlit)
23 Feb - 15:16:50 10° S 15:30:04 23° SE 15:42:30 10° E daylight
23 Feb - 17:26:41 10° SW 17:45:27 51° SSE 17:59:41 10° E visible
23 Feb - 19:42:31 10° WSW 20:01:16 78° SSE 20:12:40 10° E visible
23 Feb - 22:01:00 10° W 22:16:07 83° S 22:24:19 10° E visible
